Tracking 19832 objects as of 25-Aug-2019
HD Live streaming from Space Station
objects crossing your sky now

S-NET C

Track S-NET C now!
10-day predictions


NORAD ID: 43189
Int'l Code: 2018-014K
Perigee: 576.0 km
Apogee: 592.8 km
Inclination: 97.7 °
Period: 96.2 minutes
Semi major axis: 6955 km
RCS: Unknown
Launch date: February 1, 2018
Source: Germany (GER)
Launch site: VOSTOCHNY COSMODROME (VOSTO)
aabbcc
Your satellite tracking list
Your tracking list is empty




NASA's NSSDC Master Catalog

Two Line Element Set (TLE):
1 43189U 18014K   19236.75007015  .00000314  00000-0  32574-4 0  9998
2 43189  97.7034 144.1982 0012077 136.0272 224.1912 14.96662378 83716
Source of the keplerian elements: AMSAT